Location: Brusselsch Zeekanaal
(50.8667°N, 4.3667°E)
Time: 10:23:07
(UTC+00:00)

Cosmos 1943 Rocket - Pass Details

Date: 08 November 2025
Orbit: 812 x 841 km, 71.0° (Epoch: 11 December)

Event Time Altitude Azimuth Distance (km) Brightness Sun altitude
Exits shadow 02:24:54 18° 35° (NE) 1,918 4.5 -40.7°
Drops below altitude 10° 02:28:28 10° 76° (ENE) 2,415 5.2 -40.2°
Sets 02:31:41 0° 95° (E) 3,340 6.0 -39.7°
